Location: Conflandey
(47.7287°N, 6.0456°E)
Time: 22:07:44
(UTC+00:00)

Cosmos 407 Rocket - Pass Details

Date: 24 October 2021
Orbit: 743 x 787 km, 74.0° (Epoch: 04 December)

Event Time Altitude Azimuth Distance (km) Brightness Sun altitude
Rises 18:10:51 0° 341° (NNW) 3,269 7.0 -17.4°
Reaches altitude 10° 18:13:20 10° 347° (NNW) 2,343 6.2 -17.8°
Maximum altitude 18:18:27 46° 61° (ENE) 1,052 3.8 -18.7°
Enters shadow 18:20:08 35° 106° (ESE) 1,256 4.1 -19.0°
